Lewisburg, WV

3:42 PM EST on November 22, 2019 (GMT -0500)
Greenbrier Valley

Weather History for KLWB - September, 2019

Change the Weather History Date:

Tuesday, September 3, 2019

  Actual Average Record
Temperature  
Mean Temperature 70 °F -  
Max Temperature 85 °F 80 °F 93 °F (2011)
Min Temperature 56 °F 57 °F 42 °F (1995)
Cooling Degree Days 5    
Growing Degree Days 20 (Base 50)    
Moisture  
Dew Point 58 °F    
Average Humidity 74    
Maximum Humidity 100    
Minimum Humidity 34    
Precipitation  
Precipitation 0.00 in - - ()
Sea Level Pressure  
Sea Level Pressure 30.13 in    
Wind  
Wind Speed 1 mph (NNW)    
Max Wind Speed 5 mph    
Max Gust Speed -    
Visibility 7 miles    
Events Fog    
Averages and records for this station are not official NWS values.
T = Trace of Precipitation, MM = Missing Value Source: NWS Daily Summary

Daily Weather History Graph

Daily Weather History Graph

Search for Another Location

Airport or City:

Astronomy

Sep. 03, 2019 Rise Set
Actual Time 6:53 AM EDT 7:48 PM EDT
Civil Twilight 6:26 AM EDT 8:15 PM EDT
Nautical Twilight 5:54 AM EDT 8:46 PM EDT
Astronomical Twilight 5:21 AM EDT 9:19 PM EDT
Moon 11:39 AM EDT (9/3) 10:49 PM EDT (9/3)
Length of Visible Light 13h 48m
Length of Day
12h 55m
Waxing Crescent, 24% of the Moon is Illuminated
Sep 3
Waxing Crescent
Sep 5
First Quarter
Sep 14
Full
Sep 21
Last Quarter
Sep 28
New

Hourly Weather History & Observations

Time (EDT) Temp. Heat Index Dew Point Humidity Pressure Visibility Wind Dir Wind Speed Gust Speed Precip Events Conditions
12:15 AM 64.9 °F - 62.4 °F 92% 30.15 in 10.0 mi Calm Calm - N/A   Clear
12:35 AM 62.4 °F - 61.0 °F 95% 30.15 in 10.0 mi Calm Calm - N/A   Clear
12:55 AM 61.3 °F - 60.4 °F 97% 30.15 in 10.0 mi Calm Calm - N/A   Clear
1:15 AM 61.9 °F - 60.4 °F 95% 30.15 in 10.0 mi Calm Calm - N/A   Clear
1:35 AM 59.9 °F - 59.2 °F 97% 30.16 in 7.0 mi Calm Calm - N/A   Clear
1:55 AM 61.3 °F - 61.0 °F 99% 30.15 in 2.0 mi Calm Calm - N/A   Clear
2:15 AM 61.7 °F - 61.0 °F 97% 30.14 in 10.0 mi Calm Calm - N/A   Clear
2:35 AM 60.1 °F - 59.2 °F 97% 30.13 in 7.0 mi Calm Calm - N/A   Clear
2:55 AM 58.6 °F - 57.6 °F 96% 30.12 in 1.0 mi Calm Calm - N/A   Mist
3:15 AM 57.9 °F - 57.7 °F 99% 30.12 in 0.2 mi Calm Calm - N/A Fog Fog
3:35 AM 56.8 °F - 56.7 °F 99% 30.12 in 0.2 mi Calm Calm - N/A Fog Fog
3:55 AM 58.5 °F - 58.3 °F 99% 30.13 in 0.2 mi Calm Calm - N/A Fog Fog
4:15 AM 58.8 °F - 58.6 °F 99% 30.12 in 0.2 mi Calm Calm - N/A Fog Fog
4:35 AM 58.3 °F - 58.1 °F 99% 30.12 in 0.5 mi Calm Calm - N/A Fog Fog
4:55 AM 58.5 °F - 58.5 °F 100% 30.12 in 0.2 mi NNE 4.6 mph - N/A Fog Fog
5:15 AM 58.1 °F - 58.1 °F 100% 30.12 in 0.2 mi Calm Calm - N/A Fog Fog
5:35 AM 57.6 °F - 57.6 °F 100% 30.12 in 0.2 mi NNE 4.6 mph - N/A Fog Fog
5:55 AM 57.7 °F - 57.7 °F 100% 30.12 in 0.2 mi NNE 4.6 mph - N/A Fog Fog
6:15 AM 57.7 °F - 57.7 °F 100% 30.14 in 0.2 mi NNE 4.6 mph - N/A Fog Fog
6:35 AM 57.6 °F - 57.6 °F 100% 30.15 in 0.2 mi Calm Calm - N/A Fog Fog
6:55 AM 57.7 °F - 57.7 °F 100% 30.15 in 0.2 mi Calm Calm - N/A Fog Fog
7:15 AM 58.1 °F - 58.1 °F 100% 30.16 in 0.2 mi Calm Calm - N/A Fog Fog
7:35 AM 58.6 °F - 58.6 °F 100% 30.16 in 0.2 mi Calm Calm - N/A Fog Fog
7:55 AM 58.6 °F - 58.6 °F 100% 30.17 in 0.2 mi North 3.5 mph - N/A Fog Fog
8:15 AM 58.8 °F - 58.8 °F 100% 30.18 in 0.2 mi Calm Calm - N/A Fog Fog
8:35 AM 59.9 °F - 59.9 °F 100% 30.18 in 0.2 mi Calm Calm - N/A Fog Fog
8:55 AM 60.4 °F - 60.4 °F 100% 30.17 in 0.2 mi Calm Calm - N/A Fog Fog
9:15 AM 60.1 °F - 60.1 °F 100% 30.18 in 0.5 mi Calm Calm - N/A Fog Fog
9:35 AM 60.8 °F - 60.8 °F 100% 30.18 in 3.0 mi Calm Calm - N/A   Overcast
9:55 AM 61.7 °F - 61.7 °F 100% 30.18 in 7.0 mi Calm Calm - N/A   Overcast
10:15 AM 63.1 °F - 62.4 °F 97% 30.17 in 10.0 mi Calm Calm - N/A   Mostly Cloudy
10:35 AM 65.7 °F - 62.1 °F 88% 30.17 in 10.0 mi Calm Calm - N/A   Scattered Clouds
10:55 AM 68.2 °F - 62.6 °F 82% 30.17 in 10.0 mi Calm Calm - N/A   Clear
11:15 AM 71.2 °F - 62.4 °F 74% 30.17 in 10.0 mi Calm Calm - N/A   Clear
11:35 AM 73.6 °F - 61.9 °F 67% 30.17 in 10.0 mi Calm Calm - N/A   Clear
11:55 AM 75.2 °F - 61.0 °F 61% 30.16 in 10.0 mi Calm Calm - N/A   Clear
12:35 PM 77.0 °F - 60.4 °F 56% 30.15 in 10.0 mi Calm Calm - N/A   Clear
12:55 PM 78.6 °F - 60.6 °F 54% 30.14 in 10.0 mi Calm Calm - N/A   Clear
1:15 PM 79.2 °F - 60.3 °F 52% 30.14 in 10.0 mi WNW 3.5 mph - N/A   Clear
1:35 PM 79.2 °F - 60.6 °F 53% 30.14 in 10.0 mi WNW 4.6 mph - N/A   Clear
1:55 PM 79.7 °F - 60.1 °F 51% 30.13 in 10.0 mi East 3.5 mph - N/A   Clear
2:15 PM 81.0 °F 81.6 °F 60.3 °F 49% 30.13 in 10.0 mi West 3.5 mph - N/A   Clear
2:35 PM 81.0 °F 81.6 °F 60.3 °F 49% 30.12 in 10.0 mi Calm Calm - N/A   Clear
2:55 PM 82.6 °F 82.6 °F 59.5 °F 45% 30.12 in 10.0 mi South 3.5 mph - N/A   Clear
3:15 PM 83.1 °F 82.7 °F 58.1 °F 42% 30.11 in 10.0 mi Calm Calm - N/A   Clear
3:35 PM 83.8 °F 83.3 °F 57.7 °F 41% 30.10 in 10.0 mi Calm Calm - N/A   Clear
3:55 PM 83.8 °F 83.0 °F 56.1 °F 39% 30.10 in 10.0 mi Calm Calm - N/A   Clear
4:15 PM 84.4 °F 83.2 °F 55.4 °F 37% 30.10 in 10.0 mi NNW 3.5 mph - N/A   Clear
4:35 PM 84.4 °F 83.1 °F 54.9 °F 36% 30.10 in 10.0 mi Calm Calm - N/A   Clear
4:55 PM 84.7 °F 83.1 °F 53.4 °F 34% 30.09 in 10.0 mi NNW 4.6 mph - N/A   Clear
5:15 PM 84.0 °F 83.2 °F 56.5 °F 39% 30.10 in 10.0 mi NW 4.6 mph - N/A   Clear
5:35 PM 84.7 °F 83.4 °F 55.0 °F 36% 30.09 in 10.0 mi NNW 3.5 mph - N/A   Clear
5:55 PM 84.4 °F 82.9 °F 54.1 °F 35% 30.10 in 10.0 mi NW 3.5 mph - N/A   Clear
6:15 PM 83.5 °F 82.2 °F 54.0 °F 36% 30.09 in 10.0 mi Calm Calm - N/A   Clear
6:35 PM 82.9 °F - 52.9 °F 35% 30.09 in 10.0 mi Calm Calm - N/A   Clear
6:55 PM 82.6 °F 81.6 °F 54.0 °F 37% 30.07 in 10.0 mi Calm Calm - N/A   Clear
7:15 PM 81.5 °F 80.9 °F 54.5 °F 39% 30.08 in 10.0 mi Calm Calm - N/A   Clear
7:35 PM 78.4 °F - 57.0 °F 48% 30.07 in 10.0 mi Calm Calm - N/A   Clear
7:55 PM 77.0 °F - 56.3 °F 49% 30.08 in 10.0 mi Calm Calm - N/A   Clear
8:15 PM 71.1 °F - 57.9 °F 63% 30.09 in 10.0 mi Calm Calm - N/A   Clear
8:35 PM 69.1 °F - 57.7 °F 67% 30.09 in 10.0 mi Calm Calm - N/A   Clear
8:55 PM 69.8 °F - 57.2 °F 64% 30.08 in 10.0 mi Calm Calm - N/A   Clear
9:15 PM 70.5 °F - 56.3 °F 61% 30.08 in 10.0 mi Calm Calm - N/A   Clear
9:35 PM 72.5 °F - 57.6 °F 59% 30.09 in 10.0 mi Calm Calm - N/A   Clear
9:55 PM 70.0 °F - 57.6 °F 65% 30.10 in 10.0 mi Calm Calm - N/A   Clear
10:15 PM 66.4 °F - 57.6 °F 73% 30.10 in 10.0 mi Calm Calm - N/A   Clear
10:35 PM 65.7 °F - 57.6 °F 75% 30.11 in 10.0 mi Calm Calm - N/A   Clear
10:55 PM 63.5 °F - 57.4 °F 80% 30.11 in 10.0 mi Calm Calm - N/A   Clear
11:15 PM 62.6 °F - 57.4 °F 83% 30.11 in 10.0 mi Calm Calm - N/A   Clear
11:35 PM 62.6 °F - 57.4 °F 83% 30.11 in 10.0 mi Calm Calm - N/A   Clear
11:55 PM 62.4 °F - 57.6 °F 84% 30.10 in 10.0 mi Calm Calm - N/A   Clear